Location: Melbourne
(37.8666°S, 145.1333°E)
Time: 20:07:10
(UTC+10:00)

Daily predictions for brighter satellites

Satellite Brightness Start Highest point End
(mag) Time Altitude Azimuth Time Altitude Azimuth Time Altitude Azimuth
Cosmos 1634 Rocket 4.5 18:37:16 10° S 18:43:16 40° ESE 18:49:11 10° NE
CZ-4 R/B 2.4 18:42:21 10° S 18:46:26 53° WSW 18:50:23 10° NNW
SJ-6B 4.3 18:48:27 10° SE 18:50:54 16° E 18:53:21 10° NE
ASTEX 1 4.2 18:47:00 10° NE 18:51:19 31° ESE 18:55:41 10° SSE
YAOGAN 1 2.9 18:47:21 10° S 18:51:46 74° WSW 18:56:06 10° NNW
Cosmos 1441 Rocket 3.4 18:48:30 10° N 18:52:16 53° E 18:56:09 10° SSE
OAO 2 Rocket 3.5 18:51:07 10° W 18:56:00 62° N 19:00:50 10° ENE
Cosmos 2346 Rocket 4.5 18:51:30 10° N 18:57:31 61° E 19:03:38 10° SSE
CZ-2C R/B 2.8 18:54:45 10° S 19:00:02 79° WSW 19:05:13 10° NNW
GENESIS II 4.5 18:57:46 10° N 19:01:22 42° ENE 19:04:57 10° SE
IDEFIX/ARIANE 42P 2.7 18:56:11 10° SSE 19:01:29 87° W 19:06:41 10° NNW
USA 234 3.3 18:57:20 10° SE 19:03:54 66° NE 19:10:26 10° NW
DELTA 2 R/B (1) 3.6 18:58:38 10° WSW 19:04:18 89° NNW 19:09:24 13° ENE
Cosmos 1484 Rocket 2.8 19:00:41 10° SSE 19:04:23 50° E 19:08:02 10° N
CORIOLIS 4.4 19:00:04 10° S 19:05:29 76° WSW 19:10:51 10° NNW
Resurs 01 Rocket 3.2 19:03:52 10° ESE 19:06:32 15° E 19:09:10 10° NE
MSX 3.8 19:02:53 10° SSE 19:08:41 70° ENE 19:14:24 10° N
Cosmos 1707 2.8 19:04:53 10° N 19:08:48 84° W 19:12:49 10° S
ATLAS 5 CENTAUR R/B 4.2 19:05:50 10° NNW 19:09:23 17° NNE 19:16:36 10° NE
Blok-2BL 3.6 19:07:52 10° S 19:09:47 25° SE 19:10:48 19° E
Cosmos 1437 Rocket 3.0 19:12:14 10° S 19:16:22 57° E 19:20:27 10° NNE
Cosmos 2056 Rocket 4.4 19:14:55 10° NNE 19:19:16 26° E 19:23:36 10° SE
Cosmos 1408 Rocket 4.2 19:17:03 10° NNE 19:20:57 34° E 19:24:55 10° SSE
USA 229 DEB 3.7 19:14:27 10° SSW 19:21:35 78° ESE 19:28:32 10° NE
USA 229 3.7 19:14:32 10° SSW 19:21:40 77° ESE 19:28:38 10° NE
COSMOS 2406 3.4 19:20:37 10° SSW 19:26:28 81° WNW 19:32:16 10° NNE
Cosmos 1371 Rocket 4.3 19:23:55 10° N 19:29:00 45° ENE 19:34:08 10° SSE
CZ-3B DEB 4.0 19:21:19 10° W 19:29:25 28° SW 19:33:07 10° SSE
Cosmos 2278 Rocket 2.4 19:25:37 10° N 19:31:00 46° ENE 19:36:27 10° SE
Meteor 2-1 Rocket 4.1 19:25:57 10° S 19:31:32 68° E 19:37:07 10° NNE
BREEZE-M DEB 3.6 19:30:29 10° SW 19:32:38 53° SE 19:32:54 48° ESE
SL-27 R/B 2.4 19:29:35 10° SSW 19:33:20 78° ESE 19:36:09 16° NNE
NOSS 3-1 (C) 4.2 19:27:25 10° SSW 19:33:22 36° SE 19:36:26 22° E
SAR-Lupe-4 3.5 19:30:07 10° SSE 19:33:43 63° E 19:37:18 10° N
Cosmos 1437 3.4 19:31:52 10° NNW 19:35:10 61° W 19:38:32 10° S
NOSS 3-1 (A) 4.4 19:33:32 10° SSW 19:39:16 31° SE 19:41:55 22° E
APEX 2.5 19:36:27 10° NNW 19:39:44 84° WSW 19:42:36 10° SSE
Cosmos 2228 Rocket 4.0 19:37:41 10° SSE 19:41:43 29° ESE 19:42:17 28° E
Okean 3 Rocket 4.4 19:37:47 10° NNW 19:42:13 56° W 19:46:41 10° S
Cosmos 1818 3.5 19:38:03 10° NNW 19:43:20 61° ENE 19:48:39 10° SE
Lacrosse 5 rocket 3.3 19:41:45 10° S 19:44:23 16° SSE 19:45:18 15° SE
Cosmos 1624 Rocket 4.1 19:40:42 10° N 19:45:44 51° ENE 19:50:53 10° SSE
Cosmos 2180 Rocket 4.5 19:40:18 10° S 19:46:37 62° E 19:52:32 11° NNE
Tiangong 1 2.5 19:44:40 10° W 19:47:28 30° NNW 19:48:17 26° N
HJ-1C 3.7 19:45:21 10° SSE 19:48:11 43° ESE 19:48:11 43° ESE
Cosmos 1743 Rocket 4.3 19:51:06 32° ESE 19:51:06 32° ESE 19:54:28 10° SSE
Cosmos 44 Rocket 4.1 19:46:59 10° SSW 19:51:30 35° SE 19:52:36 31° E
deb Chang Zheng 4 4.0 19:50:47 37° ENE 19:51:49 44° ESE 19:56:01 10° S
ATLAS 2AS CENTAUR R/B 4.3 19:49:23 10° S 19:52:43 15° SE 19:54:41 13° ESE
Meteor 1-24 Rocket 4.1 19:48:05 10° NNW 19:53:21 63° W 19:58:45 10° S
Cosmos 407 Rocket 4.4 19:49:58 10° S 19:54:29 28° ESE 19:54:56 28° ESE
Cosmos 2082 Rocket 3.4 19:50:33 10° S 19:55:09 24° SE 19:55:51 23° ESE
Spot 1 4.5 19:50:27 10° SSE 19:55:39 61° ENE 20:00:43 10° N
Nimbus 7 Rocket 4.4 19:52:14 20° NNE 19:56:23 66° ESE 20:02:16 10° S
Cosmos 2221 3.2 19:56:00 10° SSW 20:00:24 57° W 20:04:44 10° N
Cosmos 2279 Rocket 4.1 19:59:29 10° S 20:05:47 77° W 20:11:59 10° N
BREEZE-M DEB (TANK) 2.4 20:02:18 10° NW 20:05:49 70° NNW 20:05:49 70° NNW
METEOR-M 4.0 20:00:49 10° SSE 20:06:16 78° ENE 20:11:38 10° N
Spot 2 Rocket 3.4 20:01:49 10° SSE 20:06:59 67° ENE 20:12:02 10° N
FREGAT/IRIS 3.8 20:05:41 10° S 20:08:46 45° WSW 20:11:48 10° NNW
In-Cosmos 22 4.1 20:05:38 10° N 20:11:14 89° WSW 20:16:46 10° S
COSMOS 2487 3.5 20:09:02 10° S 20:11:33 37° SSE 20:11:33 37° SSE
Cosmos 1844 Rocket 4.3 20:08:28 10° NW 20:13:39 35° WSW 20:18:53 10° S
GP-B 3.1 20:12:32 33° N 20:14:31 87° W 20:19:04 10° S
ALOS 3.0 20:11:20 10° SSE 20:14:36 38° SE 20:14:36 38° SE
Lacrosse 5 4.3 20:16:05 10° S 20:17:52 12° SSE 20:19:31 10° SE
FENGYUN 3A 3.8 20:15:37 10° SSE 20:20:18 50° ESE 20:20:18 50° ESE
USA 81 4.0 20:24:58 10° S 20:30:04 65° ESE 20:30:04 65° ESE
Timation 2 Rocket 4.0 20:24:30 10° SSW 20:31:08 64° ESE 20:32:01 58° ENE
Helios 1A 3.4 20:31:11 10° S 20:35:24 61° WSW 20:35:57 55° WNW
Resurs 1-3 3.9 20:34:32 10° S 20:38:58 64° WSW 20:39:18 62° W
OAO 2 Rocket 4.4 20:35:57 10° W 20:39:48 34° NW 20:39:48 34° NW
SL-19 R/B 4.4 20:39:38 62° NNE 20:40:45 88° ESE 20:47:04 10° SSW
Cosmos 1833 Rocket 3.4 20:36:49 10° S 20:41:15 41° SE 20:41:15 41° SE
Resurs 01 Rocket 2.7 20:38:54 10° S 20:43:12 45° WSW 20:46:56 13° NW
BREEZE-M DEB (TANK) 3.6 20:39:54 10° WNW 20:43:36 74° SSW 20:56:53 10° ESE
USA 234 4.5 20:40:37 10° SSE 20:46:37 39° SSW 20:52:37 10° W
Cosmos 1328 Rocket 4.3 20:43:51 10° SSW 20:47:22 49° SW 20:47:22 49° SW
Nadezhda 4 Rocket 4.4 20:44:48 10° NNW 20:50:50 58° W 20:56:57 10° S
Cosmos 44 4.2 20:46:41 10° SSW 20:49:59 41° S 20:49:59 41° S
CZ-4B R/B 4.0 20:59:35 57° SSW 20:59:35 57° SSW 21:03:44 10° SSW
Cosmos 1092 Rocket 4.1 20:57:20 46° NNW 20:59:12 69° W 21:05:27 10° S
Cosmos 2278 Rocket 4.3 21:10:44 10° WNW 21:15:17 24° WSW 21:19:54 10° S
Lacrosse 5 rocket 4.0 21:19:52 10° SW 21:21:02 19° SW 21:21:02 19° SW
NOSS 3-1 (C) 4.4 21:18:29 10° SW 21:23:52 37° WNW 21:23:52 37° WNW
NOSS 3-1 (A) 4.3 21:24:22 10° SW 21:29:23 42° W 21:29:23 42° W
Cosmos 2082 Rocket 3.5 21:33:57 10° SSW 21:37:44 37° WSW 21:37:44 37° WSW
ATLAS 2AS CENTAUR R/B 3.6 21:38:27 10° SSW 21:42:08 38° SSW 21:42:08 38° SSW
Lacrosse 5 4.5 21:57:29 10° SSW 21:58:43 16° SSW 21:58:43 16° SSW
FALCON 9 R/B 4.3 21:54:03 10° W 22:06:15 34° WNW 22:06:15 34° WNW
